User: anonymous   Login
Location: Bald Rock
(37.3738°N, 119.9354°W)
Time: 17:55:49
(UTC+00:00)
Language:

Cosmos 2333 Rocket - Orbit

View from above orbital plane
View from above orbital plane
View from above satellite
View from above satellite

Ground track
Ground track

The orbit data is extracted from the following two-line orbital elements,

1 24298U 96051B   25347.76341803  .00000037  00000-0  46619-4 0  9999
2 24298  70.7596 357.1172 0019417 260.0938  99.7990 14.12396899509512
Epoch (UTC): 13 December 2025 18:19:19
Eccentricity: 0.0019417
inclination: 70.7596°
perigee height: 837 km
apogee height: 865 km
right ascension of ascending node: 357.1172°
argument of perigee: 260.0938°
revolutions per day: 14.12396899
mean anomaly at epoch: 99.7990°
orbit number at epoch: 50951

The dashed part of the orbit path shows where the satellite is in the earth's shadow,  

DLR